Buffalo, NY

4:18 AM EDT on June 22, 2018 (GMT -0400)
Buffalo Niagara International

Weather History for KBUF - September, 2017

Change the Weather History Date:

Thursday, September 14, 2017

  Actual Average Record
Temperature  
Mean Temperature 68 °F 63 °F  
Max Temperature 73 °F 72 °F 91 °F (1952)
Min Temperature 63 °F 54 °F 36 °F (1963)
Degree Days  
Heating Degree Days 0 4  
Month to date heating degree days 62 35  
Since 1 July heating degree days 78 62  
Cooling Degree Days 3 2  
Month to date cooling degree days 12 37  
Year to date cooling degree days 482 524  
Growing Degree Days 18 (Base 50)    
Moisture  
Dew Point 63 °F    
Average Humidity 83    
Maximum Humidity 93    
Minimum Humidity 73    
Precipitation  
Precipitation 0.00 in 0.14 in 4.89 in (1979)
Month to date precipitation 2.43 1.65  
Year to date precipitation 34.71 26.81  
Snow  
Snow 0.00 in 0.00 in 0.00 in ()
Month to date snowfall 0.0 0.0  
Since 1 July snowfall 0.0 0.0  
Since 1 September snowfall 0.0 0.0  
Snow Depth 0.00 in    
Sea Level Pressure  
Sea Level Pressure 29.88 in    
Wind  
Wind Speed 10 mph (SW)    
Max Wind Speed 18 mph    
Max Gust Speed 23 mph    
Visibility 10 miles    
Events      
T = Trace of Precipitation, MM = Missing Value Source: NWS Daily Summary

Daily Weather History Graph

Daily Weather History Graph

Search for Another Location

Airport or City:

Astronomy

Sep. 14, 2017 Rise Set
Actual Time 6:53 AM EDT 7:26 PM EDT
Civil Twilight 6:25 AM EDT 7:54 PM EDT
Nautical Twilight 5:51 AM EDT 8:28 PM EDT
Astronomical Twilight 5:16 AM EDT 9:02 PM EDT
Moon 12:42 AM EDT (9/14) 3:48 PM EDT (9/14)
Length of Visible Light 13h 29m
Length of Day
12h 32m
Waning Crescent, 34% of the Moon is Illuminated
Sep 14
Waning Crescent
Sep 20
New
Sep 27
First Quarter
Oct 5
Full
Oct 12
Last Quarter

Hourly Weather History & Observations

Time (EDT) Temp. Dew Point Humidity Pressure Visibility Wind Dir Wind Speed Gust Speed Precip Events Conditions
12:54 AM 66.0 °F 63.0 °F 90% 29.80 in 10.0 mi Calm Calm - N/A   Mostly Cloudy
1:54 AM 66.0 °F 63.0 °F 90% 29.81 in 10.0 mi WSW 3.5 mph - N/A   Mostly Cloudy
2:54 AM 66.9 °F 63.0 °F 87% 29.81 in 10.0 mi West 4.6 mph - N/A   Mostly Cloudy
3:54 AM 66.0 °F 63.0 °F 90% 29.81 in 10.0 mi SSW 4.6 mph - N/A   Overcast
4:54 AM 66.0 °F 64.0 °F 93% 29.82 in 10.0 mi SW 5.8 mph - N/A   Mostly Cloudy
5:54 AM 66.0 °F 64.0 °F 93% 29.82 in 10.0 mi SSW 5.8 mph - N/A   Overcast
6:54 AM 66.0 °F 63.0 °F 90% 29.83 in 10.0 mi West 8.1 mph - N/A   Overcast
7:54 AM 66.0 °F 62.1 °F 87% 29.86 in 10.0 mi SW 5.8 mph - N/A   Mostly Cloudy
8:54 AM 66.9 °F 62.1 °F 84% 29.87 in 10.0 mi WSW 10.4 mph - N/A   Mostly Cloudy
9:54 AM 70.0 °F 62.1 °F 76% 29.88 in 10.0 mi WSW 8.1 mph - N/A   Mostly Cloudy
10:54 AM 71.1 °F 62.1 °F 73% 29.88 in 10.0 mi West 9.2 mph - N/A   Mostly Cloudy
11:48 AM 71.6 °F 64.4 °F 78% 29.89 in 10.0 mi WSW 10.4 mph - N/A   Mostly Cloudy
11:54 AM 71.1 °F 64.0 °F 78% 29.89 in 10.0 mi WSW 10.4 mph - N/A   Mostly Cloudy
12:46 PM 72.0 °F 64.0 °F 76% 29.89 in 10.0 mi SW 15.0 mph - N/A   Mostly Cloudy
12:54 PM 72.0 °F 64.0 °F 76% 29.88 in 10.0 mi SW 12.7 mph - N/A   Mostly Cloudy
1:54 PM 71.1 °F 63.0 °F 75% 29.89 in 10.0 mi SW 15.0 mph - N/A   Mostly Cloudy
2:54 PM 73.0 °F 64.0 °F 73% 29.89 in 10.0 mi SSW 16.1 mph - N/A   Mostly Cloudy
3:54 PM 71.1 °F 64.0 °F 78% 29.90 in 10.0 mi SW 13.8 mph - N/A   Scattered Clouds
4:54 PM 70.0 °F 63.0 °F 78% 29.89 in 10.0 mi SW 18.4 mph - N/A   Scattered Clouds
5:54 PM 70.0 °F 63.0 °F 78% 29.90 in 10.0 mi WSW 12.7 mph - N/A   Partly Cloudy
6:54 PM 68.0 °F 62.1 °F 81% 29.92 in 10.0 mi SW 13.8 mph - N/A   Partly Cloudy
7:54 PM 66.9 °F 62.1 °F 84% 29.94 in 10.0 mi SW 11.5 mph - N/A   Partly Cloudy
8:54 PM 66.9 °F 63.0 °F 87% 29.96 in 10.0 mi SW 11.5 mph - N/A   Partly Cloudy
9:54 PM 66.9 °F 63.0 °F 87% 29.96 in 10.0 mi SW 11.5 mph - N/A   Mostly Cloudy
10:54 PM 66.9 °F 63.0 °F 87% 29.98 in 10.0 mi SW 10.4 mph - N/A   Mostly Cloudy
11:54 PM 66.0 °F 63.0 °F 90% 29.98 in 10.0 mi SW 10.4 mph - N/A   Scattered Clouds